Time,TemperatureF,DewpointF,PressureIn,WindDirection,WindDirectionDegrees,WindSpeedMPH,WindSpeedGustMPH,Humidity,HourlyPrecipIn,Conditions,Clouds,dailyrainin,SolarRadiationWatts/m^2,SoftwareType,DateUTC
2013-10-07 00:00:00,56.8,8.1,30.11,WSW,248,0.0,2.0,14,0.00,,---,0.00,0.00,VWS V14.01,2013-10-07 07:00:00,
2013-10-07 00:08:00,56.5,8.0,30.11,WSW,251,1.0,2.0,14,0.00,,,0.00,0,weatherlink.com 1.10,2013-10-07 07:08:00,
2013-10-07 00:15:00,56.5,9.4,30.11,WSW,248,0.0,2.0,15,0.00,,---,0.00,0.00,VWS V14.01,2013-10-07 07:15:00,
2013-10-07 00:23:00,55.9,9.0,30.11,WSW,251,0.0,1.0,15,0.00,,,0.00,0,weatherlink.com 1.10,2013-10-07 07:23:00,
2013-10-07 00:30:00,55.8,8.9,30.11,WSW,248,0.0,1.0,15,0.00,,---,0.00,0.00,VWS V14.01,2013-10-07 07:30:00,
2013-10-07 00:38:00,54.7,8.0,30.10,WSW,251,0.0,1.0,15,0.00,,,0.00,0,weatherlink.com 1.10,2013-10-07 07:38:00,
2013-10-07 00:45:00,54.6,9.3,30.10,WSW,248,0.0,1.0,16,0.00,,---,0.00,0.00,VWS V14.01,2013-10-07 07:45:00,
2013-10-07 00:53:00,53.9,8.0,30.10,WSW,251,0.0,0.0,16,0.00,,,0.00,0,weatherlink.com 1.10,2013-10-07 07:53:00,
2013-10-07 01:00:00,53.9,10.1,30.10,WSW,248,0.0,0.0,17,0.00,,---,0.00,0.00,VWS V14.01,2013-10-07 08:00:00,
2013-10-07 01:08:00,53.2,8.0,30.11,WSW,251,0.0,0.0,16,0.00,,,0.00,0,weatherlink.com 1.10,2013-10-07 08:08:00,
2013-10-07 01:15:00,53.3,8.3,30.10,WSW,248,0.0,0.0,16,0.00,,---,0.00,0.00,VWS V14.01,2013-10-07 08:15:00,
2013-10-07 01:23:00,52.6,9.0,30.10,WSW,251,0.0,0.0,17,0.00,,,0.00,0,weatherlink.com 1.10,2013-10-07 08:23:00,
2013-10-07 01:30:00,52.6,9.1,30.11,WSW,248,0.0,1.0,17,0.00,,---,0.00,0.00,VWS V14.01,2013-10-07 08:30:00,
2013-10-07 01:38:00,52.0,8.0,30.11,WSW,251,1.0,1.0,17,0.00,,,0.00,0,weatherlink.com 1.10,2013-10-07 08:38:00,
2013-10-07 01:45:00,52.1,7.3,30.10,WSW,248,1.0,5.0,16,0.00,,---,0.00,0.00,VWS V14.01,2013-10-07 08:45:00,
2013-10-07 01:53:00,51.9,7.0,30.10,West,268,4.0,6.0,16,0.00,,,0.00,0,weatherlink.com 1.10,2013-10-07 08:53:00,
2013-10-07 02:00:00,51.9,5.7,30.10,West,270,3.0,6.0,15,0.00,,---,0.00,0.00,VWS V14.01,2013-10-07 09:00:00,
2013-10-07 02:08:00,52.8,6.0,30.10,WSW,248,3.0,5.0,15,0.00,,,0.00,0,weatherlink.com 1.10,2013-10-07 09:08:00,
2013-10-07 02:15:00,52.8,6.4,30.10,WSW,248,3.0,5.0,15,0.00,,---,0.00,0.00,VWS V14.01,2013-10-07 09:15:00,
2013-10-07 02:23:00,53.5,7.0,30.09,WSW,237,3.0,4.0,15,0.00,,,0.00,0,weatherlink.com 1.10,2013-10-07 09:23:00,
2013-10-07 02:30:00,53.5,7.0,30.09,WSW,248,3.0,4.0,15,0.00,,---,0.00,0.00,VWS V14.01,2013-10-07 09:30:00,
2013-10-07 02:38:00,54.2,6.0,30.09,WSW,237,2.0,4.0,14,0.00,,,0.00,0,weatherlink.com 1.10,2013-10-07 09:38:00,
2013-10-07 02:45:00,54.2,6.1,30.09,WSW,248,2.0,3.0,14,0.00,,---,0.00,0.00,VWS V14.01,2013-10-07 09:45:00,
2013-10-07 02:53:00,55.0,5.0,30.09,WSW,237,2.0,3.0,13,0.00,,,0.00,0,weatherlink.com 1.10,2013-10-07 09:53:00,
2013-10-07 03:00:00,55.0,5.1,30.09,WSW,248,2.0,4.0,13,0.00,,---,0.00,0.00,VWS V14.01,2013-10-07 10:00:00,
2013-10-07 03:08:00,55.7,5.0,30.09,WSW,237,2.0,3.0,13,0.00,,,0.00,0,weatherlink.com 1.10,2013-10-07 10:08:00,
2013-10-07 03:15:00,55.8,5.7,30.09,WSW,248,2.0,3.0,13,0.00,,---,0.00,0.00,VWS V14.01,2013-10-07 10:15:00,
2013-10-07 03:23:00,55.9,5.0,30.08,WSW,237,0.0,3.0,13,0.00,,,0.00,0,weatherlink.com 1.10,2013-10-07 10:23:00,
2013-10-07 03:30:00,55.9,10.4,30.08,WSW,248,1.0,3.0,16,0.00,,---,0.00,0.00,VWS V14.01,2013-10-07 10:30:00,
2013-10-07 03:38:00,55.1,9.0,30.07,WSW,237,0.0,2.0,16,0.00,,,0.00,0,weatherlink.com 1.10,2013-10-07 10:38:00,
2013-10-07 03:45:00,55.0,9.6,30.08,WSW,248,0.0,2.0,16,0.00,,---,0.00,0.00,VWS V14.01,2013-10-07 10:45:00,
2013-10-07 03:53:00,53.9,8.0,30.07,WSW,238,0.0,0.0,16,0.00,,,0.00,0,weatherlink.com 1.10,2013-10-07 10:53:00,
2013-10-07 04:00:00,53.8,10.0,30.07,WSW,248,0.0,0.0,17,0.00,,---,0.00,0.00,VWS V14.01,2013-10-07 11:00:00,
2013-10-07 04:08:00,52.3,8.0,30.07,WSW,237,0.0,0.0,17,0.00,,,0.00,0,weatherlink.com 1.10,2013-10-07 11:08:00,
2013-10-07 04:15:00,52.3,7.5,30.07,WSW,248,0.0,0.0,16,0.00,,---,0.00,0.00,VWS V14.01,2013-10-07 11:15:00,
2013-10-07 04:24:00,50.5,7.0,30.07,WSW,237,0.0,0.0,17,0.00,,,0.00,0,weatherlink.com 1.10,2013-10-07 11:24:00,
2013-10-07 04:30:00,50.6,7.4,30.07,WSW,248,0.0,1.0,17,0.00,,---,0.00,0.00,VWS V14.01,2013-10-07 11:30:00,
2013-10-07 04:39:00,49.5,5.0,30.07,WNW,284,3.0,5.0,16,0.00,,,0.00,0,weatherlink.com 1.10,2013-10-07 11:39:00,
2013-10-07 04:45:00,49.6,5.3,30.07,WNW,292,2.0,5.0,16,0.00,,---,0.00,0.00,VWS V14.01,2013-10-07 11:45:00,
2013-10-07 04:54:00,48.9,4.0,30.07,WSW,256,3.0,4.0,16,0.00,,,0.00,0,weatherlink.com 1.10,2013-10-07 11:54:00,
2013-10-07 05:00:00,48.9,4.7,30.07,WSW,248,3.0,4.0,16,0.00,,---,0.00,0.00,VWS V14.01,2013-10-07 12:00:00,
2013-10-07 05:09:00,48.9,4.0,30.07,WSW,256,0.0,3.0,16,0.00,,,0.00,0,weatherlink.com 1.10,2013-10-07 12:09:00,
2013-10-07 05:15:00,49.0,6.1,30.07,WSW,248,0.0,3.0,17,0.00,,---,0.00,0.00,VWS V14.01,2013-10-07 12:15:00,
2013-10-07 05:24:00,48.9,6.0,30.07,WSW,256,0.0,0.0,17,0.00,,,0.00,0,weatherlink.com 1.10,2013-10-07 12:24:00,
2013-10-07 05:30:00,49.0,6.1,30.07,WSW,248,0.0,0.0,17,0.00,,---,0.00,0.00,VWS V14.01,2013-10-07 12:30:00,
2013-10-07 05:39:00,48.8,7.0,30.07,WSW,256,0.0,0.0,18,0.00,,,0.00,0,weatherlink.com 1.10,2013-10-07 12:39:00,
2013-10-07 05:45:00,48.9,7.3,30.07,WSW,248,0.0,0.0,18,0.00,,---,0.00,0.00,VWS V14.01,2013-10-07 12:45:00,
2013-10-07 05:54:00,49.1,7.0,30.07,WSW,256,0.0,0.0,18,0.00,,,0.00,0,weatherlink.com 1.10,2013-10-07 12:54:00,
2013-10-07 06:00:00,49.1,8.6,30.07,WSW,248,0.0,1.0,19,0.00,,---,0.00,0.00,VWS V14.01,2013-10-07 13:00:00,
2013-10-07 06:09:00,49.2,8.0,30.07,WSW,256,0.0,2.0,19,0.00,,,0.00,0,weatherlink.com 1.10,2013-10-07 13:09:00,
2013-10-07 06:15:00,49.3,7.6,30.07,WSW,248,1.0,3.0,18,0.00,,---,0.00,0.00,VWS V14.01,2013-10-07 13:15:00,
2013-10-07 06:24:00,49.8,8.0,30.07,WSW,256,0.0,1.0,18,0.00,,,0.00,0,weatherlink.com 1.10,2013-10-07 13:24:00,
2013-10-07 06:30:00,49.8,8.0,30.08,WSW,248,0.0,1.0,18,0.00,,---,0.00,0.00,VWS V14.01,2013-10-07 13:30:00,
2013-10-07 06:39:00,50.2,8.0,30.08,WSW,256,0.0,1.0,18,0.00,,,0.00,0,weatherlink.com 1.10,2013-10-07 13:39:00,
2013-10-07 06:45:00,50.1,8.3,30.08,WSW,248,0.0,2.0,18,0.00,,---,0.00,0.00,VWS V14.01,2013-10-07 13:45:00,
2013-10-07 06:54:00,50.1,9.0,30.07,WSW,256,0.0,2.0,19,0.00,,,0.00,0,weatherlink.com 1.10,2013-10-07 13:54:00,
2013-10-07 07:00:00,50.1,10.6,30.08,WSW,248,0.0,1.0,20,0.00,,---,0.00,2.00,VWS V14.01,2013-10-07 14:00:00,
2013-10-07 07:09:00,49.5,10.0,30.07,WSW,256,0.0,0.0,20,0.00,,,0.00,16,weatherlink.com 1.10,2013-10-07 14:09:00,
2013-10-07 07:15:00,49.5,9.0,30.07,WSW,248,0.0,0.0,19,0.00,,---,0.00,18.00,VWS V14.01,2013-10-07 14:15:00,
2013-10-07 07:24:00,48.9,9.0,30.08,WSW,256,0.0,0.0,20,0.00,,,0.00,33,weatherlink.com 1.10,2013-10-07 14:24:00,
2013-10-07 07:30:00,48.9,8.5,30.08,WSW,248,0.0,3.0,19,0.00,,---,0.00,33.00,VWS V14.01,2013-10-07 14:30:00,
2013-10-07 07:39:00,48.8,9.0,30.08,WSW,256,1.0,3.0,20,0.00,,,0.00,88,weatherlink.com 1.10,2013-10-07 14:39:00,
2013-10-07 07:45:00,48.7,8.3,30.08,WSW,248,2.0,5.0,19,0.00,,---,0.00,87.00,VWS V14.01,2013-10-07 14:45:00,
2013-10-07 07:54:00,49.8,6.0,30.09,West,264,1.0,5.0,17,0.00,,,0.00,105,weatherlink.com 1.10,2013-10-07 14:54:00,
2013-10-07 08:00:00,49.9,5.5,30.08,West,270,2.0,5.0,16,0.00,,---,0.00,125.00,VWS V14.01,2013-10-07 15:00:00,
2013-10-07 08:09:00,52.0,7.0,30.09,WSW,248,2.0,4.0,16,0.00,,,0.00,134,weatherlink.com 1.10,2013-10-07 15:09:00,
2013-10-07 08:15:00,52.0,5.8,30.09,WSW,248,2.0,4.0,15,0.00,,---,0.00,189.00,VWS V14.01,2013-10-07 15:15:00,
2013-10-07 08:24:00,53.6,8.0,30.09,WSW,248,0.0,3.0,16,0.00,,,0.00,165,weatherlink.com 1.10,2013-10-07 15:24:00,
2013-10-07 08:30:00,53.6,8.5,30.09,WSW,248,0.0,2.0,16,0.00,,---,0.00,243.00,VWS V14.01,2013-10-07 15:30:00,
2013-10-07 08:39:00,55.7,8.0,30.09,WSW,248,2.0,3.0,15,0.00,,,0.00,452,weatherlink.com 1.10,2013-10-07 15:39:00,
2013-10-07 08:45:00,55.7,8.8,30.09,WSW,248,1.0,3.0,15,0.00,,---,0.00,377.00,VWS V14.01,2013-10-07 15:45:00,
2013-10-07 08:54:00,58.7,11.0,30.09,WSW,248,0.0,2.0,15,0.00,,,0.00,503,weatherlink.com 1.10,2013-10-07 15:54:00,
2013-10-07 09:00:00,58.6,9.6,30.08,WSW,248,0.0,2.0,14,0.00,,---,0.00,371.00,VWS V14.01,2013-10-07 16:00:00,
2013-10-07 09:09:00,61.2,10.0,30.09,WSW,248,0.0,0.0,13,0.00,,,0.00,246,weatherlink.com 1.10,2013-10-07 16:09:00,
2013-10-07 09:15:00,61.1,9.9,30.09,WSW,248,0.0,0.0,13,0.00,,---,0.00,344.00,VWS V14.01,2013-10-07 16:15:00,
2013-10-07 09:24:00,63.7,10.0,30.09,WSW,248,0.0,0.0,12,0.00,,,0.00,594,weatherlink.com 1.10,2013-10-07 16:24:00,
2013-10-07 09:30:00,63.6,8.1,30.08,WSW,248,0.0,0.0,11,0.00,,---,0.00,570.00,VWS V14.01,2013-10-07 16:30:00,
2013-10-07 09:39:00,66.9,8.0,30.09,WSW,248,0.0,0.0,10,0.00,,,0.00,287,weatherlink.com 1.10,2013-10-07 16:39:00,
2013-10-07 09:45:00,66.7,8.4,30.08,South,180,0.0,2.0,10,0.00,,---,0.00,379.00,VWS V14.01,2013-10-07 16:45:00,
2013-10-07 09:54:00,68.6,10.0,30.08,South,172,0.0,0.0,10,0.00,,,0.00,541,weatherlink.com 1.10,2013-10-07 16:54:00,
2013-10-07 10:00:00,68.6,9.9,30.08,SE,135,0.0,3.0,10,0.00,,---,0.00,420.00,VWS V14.01,2013-10-07 17:00:00,
2013-10-07 10:09:00,69.4,12.0,30.08,ESE,119,2.0,4.0,11,0.00,,,0.00,515,weatherlink.com 1.10,2013-10-07 17:09:00,
2013-10-07 10:15:00,69.4,10.5,30.08,ESE,112,1.0,4.0,10,0.00,,---,0.00,454.00,VWS V14.01,2013-10-07 17:15:00,
2013-10-07 10:24:00,70.3,13.0,30.08,ESE,118,0.0,2.0,11,0.00,,,0.00,352,weatherlink.com 1.10,2013-10-07 17:24:00,
2013-10-07 10:30:00,70.1,11.0,30.07,ESE,112,0.0,3.0,10,0.00,,---,0.00,468.00,VWS V14.01,2013-10-07 17:30:00,
2013-10-07 10:39:00,70.9,9.0,30.07,East,91,2.0,5.0,9,0.00,,,0.00,751,weatherlink.com 1.10,2013-10-07 17:39:00,
2013-10-07 10:45:00,71.0,9.4,30.07,East,90,1.0,5.0,9,0.00,,---,0.00,620.00,VWS V14.01,2013-10-07 17:45:00,
2013-10-07 10:54:00,72.1,12.0,30.07,ENE,73,0.0,4.0,10,0.00,,,0.00,798,weatherlink.com 1.10,2013-10-07 17:54:00,
2013-10-07 11:00:00,72.0,12.5,30.07,ENE,68,1.0,5.0,10,0.00,,---,0.00,669.00,VWS V14.01,2013-10-07 18:00:00,
2013-10-07 11:10:00,72.8,13.0,30.06,ENE,78,4.0,5.0,10,0.00,,,0.00,701,weatherlink.com 1.10,2013-10-07 18:10:00,
2013-10-07 11:15:00,72.7,13.0,30.06,ENE,68,2.0,5.0,10,0.00,,---,0.00,670.00,VWS V14.01,2013-10-07 18:15:00,
2013-10-07 11:25:00,73.2,11.0,30.06,ENE,72,0.0,5.0,9,0.00,,,0.00,729,weatherlink.com 1.10,2013-10-07 18:25:00,
2013-10-07 11:30:00,73.2,11.0,30.05,ENE,68,2.0,5.0,9,0.00,,---,0.00,633.00,VWS V14.01,2013-10-07 18:30:00,
2013-10-07 11:40:00,74.0,12.0,30.05,ENE,70,2.0,5.0,9,0.00,,,0.00,636,weatherlink.com 1.10,2013-10-07 18:40:00,
2013-10-07 11:45:00,73.9,11.6,30.04,ENE,68,2.0,5.0,9,0.00,,---,0.00,481.00,VWS V14.01,2013-10-07 18:45:00,
2013-10-07 11:55:00,73.7,11.0,30.04,ENE,69,4.0,5.0,9,0.00,,,0.00,559,weatherlink.com 1.10,2013-10-07 18:55:00,
2013-10-07 12:00:00,73.8,11.5,30.03,ENE,68,3.0,7.0,9,0.00,,---,0.00,462.00,VWS V14.01,2013-10-07 19:00:00,
2013-10-07 12:10:00,74.7,12.0,30.02,NE,55,0.0,7.0,9,0.00,,,0.00,693,weatherlink.com 1.10,2013-10-07 19:10:00,
2013-10-07 12:15:00,74.6,12.1,30.02,NE,45,2.0,7.0,9,0.00,,---,0.00,669.00,VWS V14.01,2013-10-07 19:15:00,
2013-10-07 12:25:00,76.1,10.0,30.02,NE,52,1.0,5.0,8,0.00,,,0.00,436,weatherlink.com 1.10,2013-10-07 19:25:00,
2013-10-07 12:30:00,76.0,10.5,30.02,NE,45,2.0,5.0,8,0.00,,---,0.00,660.00,VWS V14.01,2013-10-07 19:30:00,
2013-10-07 12:40:00,77.0,11.0,30.02,NE,52,1.0,4.0,8,0.00,,,0.00,429,weatherlink.com 1.10,2013-10-07 19:40:00,
2013-10-07 12:45:00,76.9,11.2,30.01,NE,45,1.0,5.0,8,0.00,,---,0.00,544.00,VWS V14.01,2013-10-07 19:45:00,
2013-10-07 12:55:00,77.9,12.0,30.00,NE,47,2.0,6.0,8,0.00,,,0.00,970,weatherlink.com 1.10,2013-10-07 19:55:00,
2013-10-07 13:00:00,77.9,11.9,29.99,NE,45,3.0,7.0,8,0.00,,---,0.00,751.00,VWS V14.01,2013-10-07 20:00:00,
2013-10-07 13:10:00,78.8,9.0,29.99,NE,44,1.0,6.0,7,0.00,,,0.00,489,weatherlink.com 1.10,2013-10-07 20:10:00,
2013-10-07 13:15:00,78.8,9.6,29.99,NE,45,2.0,6.0,7,0.00,,---,0.00,492.00,VWS V14.01,2013-10-07 20:15:00,
2013-10-07 13:25:00,79.2,10.0,29.98,NNE,16,1.0,4.0,7,0.00,,,0.00,628,weatherlink.com 1.10,2013-10-07 20:25:00,
2013-10-07 13:30:00,79.1,9.8,29.98,NNE,22,2.0,4.0,7,0.00,,---,0.00,724.00,VWS V14.01,2013-10-07 20:30:00,
2013-10-07 13:40:00,80.5,11.0,29.98,NNW,346,0.0,5.0,7,0.00,,,0.00,898,weatherlink.com 1.10,2013-10-07 20:40:00,
2013-10-07 13:45:00,80.3,10.7,29.97,NNW,338,2.0,6.0,7,0.00,,---,0.00,907.00,VWS V14.01,2013-10-07 20:45:00,
2013-10-07 13:55:00,81.2,11.0,29.97,South,182,2.0,7.0,7,0.00,,,0.00,798,weatherlink.com 1.10,2013-10-07 20:55:00,
2013-10-07 14:00:00,81.5,11.6,29.97,NE,45,3.0,8.0,7,0.00,,---,0.00,787.00,VWS V14.01,2013-10-07 21:00:00,
2013-10-07 14:10:00,83.2,13.0,29.96,SW,226,8.0,15.0,7,0.00,,,0.00,223,weatherlink.com 1.10,2013-10-07 21:10:00,
2013-10-07 14:15:00,83.1,12.7,29.95,SSW,202,6.0,15.0,7,0.00,,---,0.00,334.00,VWS V14.01,2013-10-07 21:15:00,
2013-10-07 14:25:00,82.4,12.0,29.95,SSE,161,6.0,10.0,7,0.00,,,0.00,309,weatherlink.com 1.10,2013-10-07 21:25:00,
2013-10-07 14:30:00,82.2,12.1,29.95,South,180,6.0,11.0,7,0.00,,---,0.00,319.00,VWS V14.01,2013-10-07 21:30:00,
2013-10-07 14:40:00,81.2,11.0,29.95,SSW,194,12.0,15.0,7,0.00,,,0.00,485,weatherlink.com 1.10,2013-10-07 21:40:00,
2013-10-07 14:45:00,81.4,11.5,29.95,SSW,202,8.0,16.0,7,0.00,,---,0.00,312.00,VWS V14.01,2013-10-07 21:45:00,
2013-10-07 14:55:00,81.6,12.0,29.95,SSW,202,9.0,16.0,7,0.00,,,0.00,902,weatherlink.com 1.10,2013-10-07 21:55:00,
2013-10-07 15:00:00,81.5,11.6,29.95,SSW,202,10.0,18.0,7,0.00,,---,0.00,640.00,VWS V14.01,2013-10-07 22:00:00,
2013-10-07 15:10:00,81.6,8.0,29.95,SSW,200,7.0,15.0,6,0.00,,,0.00,237,weatherlink.com 1.10,2013-10-07 22:10:00,
2013-10-07 15:15:00,81.7,11.7,29.94,SSW,202,7.0,15.0,7,0.00,,---,0.00,298.00,VWS V14.01,2013-10-07 22:15:00,
2013-10-07 15:25:00,81.1,8.0,29.94,South,185,9.0,14.0,6,0.00,,,0.00,707,weatherlink.com 1.10,2013-10-07 22:25:00,
2013-10-07 15:30:00,81.1,7.8,29.94,SSW,202,8.0,14.0,6,0.00,,---,0.00,488.00,VWS V14.01,2013-10-07 22:30:00,
2013-10-07 15:40:00,83.0,9.0,29.93,SW,226,7.0,14.0,6,0.00,,,0.00,589,weatherlink.com 1.10,2013-10-07 22:40:00,
2013-10-07 15:45:00,82.7,9.0,29.93,SW,225,7.0,14.0,6,0.00,,---,0.00,613.00,VWS V14.01,2013-10-07 22:45:00,
2013-10-07 15:55:00,83.4,9.0,29.93,SSE,167,5.0,16.0,6,0.00,,,0.00,490,weatherlink.com 1.10,2013-10-07 22:55:00,
2013-10-07 16:00:00,83.4,9.5,29.92,SSW,202,7.0,16.0,6,0.00,,---,0.00,496.00,VWS V14.01,2013-10-07 23:00:00,
2013-10-07 16:10:00,83.6,10.0,29.92,SSW,211,10.0,16.0,6,0.00,,,0.00,439,weatherlink.com 1.10,2013-10-07 23:10:00,
2013-10-07 16:15:00,83.6,9.6,29.91,SSW,202,8.0,16.0,6,0.00,,---,0.00,443.00,VWS V14.01,2013-10-07 23:15:00,
2013-10-07 16:25:00,83.4,9.0,29.91,South,188,5.0,12.0,6,0.00,,,0.00,392,weatherlink.com 1.10,2013-10-07 23:25:00,
2013-10-07 16:30:00,83.3,9.4,29.91,SSW,202,7.0,12.0,6,0.00,,---,0.00,394.00,VWS V14.01,2013-10-07 23:30:00,
2013-10-07 16:40:00,83.4,9.0,29.91,SSW,199,13.0,14.0,6,0.00,,,0.00,341,weatherlink.com 1.10,2013-10-07 23:40:00,
2013-10-07 16:45:00,83.3,9.4,29.91,SSW,202,8.0,15.0,6,0.00,,---,0.00,347.00,VWS V14.01,2013-10-07 23:45:00,
2013-10-07 16:55:00,83.0,9.0,29.90,South,184,9.0,15.0,6,0.00,,,0.00,292,weatherlink.com 1.10,2013-10-07 23:55:00,
2013-10-07 17:00:00,83.0,9.2,29.90,SSW,202,9.0,17.0,6,0.00,,---,0.00,298.00,VWS V14.01,2013-10-08 00:00:00,
2013-10-07 17:10:00,82.6,12.0,29.90,South,188,10.0,17.0,7,0.00,,,0.00,243,weatherlink.com 1.10,2013-10-08 00:10:00,
2013-10-07 17:15:00,82.6,12.4,29.90,SSW,202,9.0,17.0,7,0.00,,---,0.00,248.00,VWS V14.01,2013-10-08 00:15:00,
2013-10-07 17:25:00,82.2,12.0,29.90,SW,216,5.0,16.0,7,0.00,,,0.00,193,weatherlink.com 1.10,2013-10-08 00:25:00,
2013-10-07 17:30:00,82.2,12.1,29.90,SSW,202,8.0,16.0,7,0.00,,---,0.00,199.00,VWS V14.01,2013-10-08 00:30:00,
2013-10-07 17:40:00,81.8,12.0,29.89,SW,217,7.0,13.0,7,0.00,,,0.00,141,weatherlink.com 1.10,2013-10-08 00:40:00,
2013-10-07 17:45:00,81.8,11.8,29.89,SW,225,7.0,13.0,7,0.00,,---,0.00,150.00,VWS V14.01,2013-10-08 00:45:00,
2013-10-07 17:55:00,81.2,11.0,29.89,SSW,205,10.0,13.0,7,0.00,,,0.00,81,weatherlink.com 1.10,2013-10-08 00:55:00,
2013-10-07 18:00:00,81.3,11.4,29.89,SSW,202,8.0,15.0,7,0.00,,---,0.00,82.00,VWS V14.01,2013-10-08 01:00:00,
2013-10-07 18:10:00,79.9,19.0,29.88,SSW,207,7.0,15.0,10,0.00,,,0.00,16,weatherlink.com 1.10,2013-10-08 01:10:00,
2013-10-07 18:15:00,80.1,13.5,29.88,SSW,202,8.0,17.0,8,0.00,,---,0.00,19.00,VWS V14.01,2013-10-08 01:15:00,
2013-10-07 18:25:00,78.6,12.0,29.88,SSW,208,7.0,19.0,8,0.00,,,0.00,5,weatherlink.com 1.10,2013-10-08 01:25:00,
2013-10-07 18:30:00,78.8,12.6,29.88,SSW,202,10.0,20.0,8,0.00,,---,0.00,6.00,VWS V14.01,2013-10-08 01:30:00,
2013-10-07 18:40:00,77.7,14.0,29.88,South,189,10.0,21.0,9,0.00,,,0.00,0,weatherlink.com 1.10,2013-10-08 01:40:00,
2013-10-07 18:45:00,77.8,14.5,29.88,SSW,202,11.0,21.0,9,0.00,,---,0.00,0.00,VWS V14.01,2013-10-08 01:45:00,
2013-10-07 18:55:00,76.8,14.0,29.88,SSW,207,13.0,22.0,9,0.00,,,0.00,0,weatherlink.com 1.10,2013-10-08 01:55:00,
2013-10-07 19:00:00,76.9,16.2,29.88,SSW,202,11.0,22.0,10,0.00,,---,0.00,0.00,VWS V14.01,2013-10-08 02:00:00,
2013-10-07 19:11:00,76.0,16.0,29.89,SW,218,8.0,19.0,10,0.00,,,0.00,0,weatherlink.com 1.10,2013-10-08 02:11:00,
2013-10-07 19:15:00,76.2,17.9,29.89,SW,225,11.0,19.0,11,0.00,,---,0.00,0.00,VWS V14.01,2013-10-08 02:15:00,
2013-10-07 19:26:00,75.4,17.0,29.89,SSW,197,5.0,19.0,11,0.00,,,0.00,0,weatherlink.com 1.10,2013-10-08 02:26:00,
2013-10-07 19:30:00,75.5,15.2,29.89,SW,225,11.0,20.0,10,0.00,,---,0.00,0.00,VWS V14.01,2013-10-08 02:30:00,
2013-10-07 19:41:00,74.6,17.0,29.89,SW,220,7.0,16.0,11,0.00,,,0.00,0,weatherlink.com 1.10,2013-10-08 02:41:00,
2013-10-07 19:45:00,74.7,16.7,29.90,SW,225,7.0,16.0,11,0.00,,---,0.00,0.00,VWS V14.01,2013-10-08 02:45:00,
2013-10-07 19:56:00,73.2,15.0,29.89,SW,232,5.0,8.0,11,0.00,,,0.00,0,weatherlink.com 1.10,2013-10-08 02:56:00,
2013-10-07 20:00:00,73.4,15.7,29.89,SSW,202,5.0,9.0,11,0.00,,---,0.00,0.00,VWS V14.01,2013-10-08 03:00:00,
2013-10-07 20:11:00,72.0,17.0,29.89,SSW,198,9.0,11.0,12,0.00,,,0.00,0,weatherlink.com 1.10,2013-10-08 03:11:00,
2013-10-07 20:15:00,72.1,14.7,29.90,SSW,202,6.0,11.0,11,0.00,,---,0.00,0.00,VWS V14.01,2013-10-08 03:15:00,
2013-10-07 20:26:00,71.8,16.0,29.90,SSW,192,8.0,13.0,12,0.00,,,0.00,0,weatherlink.com 1.10,2013-10-08 03:26:00,
2013-10-07 20:30:00,71.8,16.5,29.90,SSW,202,7.0,13.0,12,0.00,,---,0.00,0.00,VWS V14.01,2013-10-08 03:30:00,
2013-10-07 20:41:00,71.5,16.0,29.90,SSW,192,4.0,11.0,12,0.00,,,0.00,0,weatherlink.com 1.10,2013-10-08 03:41:00,
2013-10-07 20:45:00,71.5,16.3,29.90,SSW,202,6.0,12.0,12,0.00,,---,0.00,0.00,VWS V14.01,2013-10-08 03:45:00,
2013-10-07 20:56:00,70.9,16.0,29.89,South,174,7.0,13.0,12,0.00,,,0.00,0,weatherlink.com 1.10,2013-10-08 03:56:00,
2013-10-07 21:00:00,71.0,15.9,29.89,SSW,202,7.0,13.0,12,0.00,,---,0.00,0.00,VWS V14.01,2013-10-08 04:00:00,
2013-10-07 21:11:00,70.8,16.0,29.89,SSW,197,9.0,15.0,12,0.00,,,0.00,0,weatherlink.com 1.10,2013-10-08 04:11:00,
2013-10-07 21:15:00,70.8,17.6,29.89,SSW,202,9.0,16.0,13,0.00,,---,0.00,0.00,VWS V14.01,2013-10-08 04:15:00,
2013-10-07 21:26:00,70.6,13.0,29.89,SW,218,7.0,15.0,11,0.00,,,0.00,0,weatherlink.com 1.10,2013-10-08 04:26:00,
2013-10-07 21:30:00,70.4,15.4,29.89,SSW,202,9.0,16.0,12,0.00,,---,0.00,0.00,VWS V14.01,2013-10-08 04:30:00,
2013-10-07 21:41:00,70.1,11.0,29.88,WSW,251,11.0,17.0,10,0.00,,,0.00,0,weatherlink.com 1.10,2013-10-08 04:41:00,
2013-10-07 21:45:00,70.0,8.6,29.88,WSW,248,11.0,18.0,9,0.00,,---,0.00,0.00,VWS V14.01,2013-10-08 04:45:00,
2013-10-07 21:56:00,71.3,9.0,29.88,WSW,238,9.0,19.0,9,0.00,,,0.00,0,weatherlink.com 1.10,2013-10-08 04:56:00,
2013-10-07 22:00:00,71.1,9.4,29.89,SW,225,12.0,19.0,9,0.00,,---,0.00,0.00,VWS V14.01,2013-10-08 05:00:00,
2013-10-07 22:11:00,71.6,10.0,29.89,SSW,207,9.0,18.0,9,0.00,,,0.00,0,weatherlink.com 1.10,2013-10-08 05:11:00,
2013-10-07 22:15:00,71.6,9.8,29.88,SW,225,12.0,18.0,9,0.00,,---,0.00,0.00,VWS V14.01,2013-10-08 05:15:00,
2013-10-07 22:26:00,71.5,12.0,29.89,SW,218,16.0,22.0,10,0.00,,,0.00,0,weatherlink.com 1.10,2013-10-08 05:26:00,
2013-10-07 22:30:00,71.6,12.2,29.89,SW,225,12.0,22.0,10,0.00,,---,0.00,0.00,VWS V14.01,2013-10-08 05:30:00,
2013-10-07 22:41:00,70.6,13.0,29.89,SSW,209,13.0,20.0,11,0.00,,,0.00,0,weatherlink.com 1.10,2013-10-08 05:41:00,
2013-10-07 22:45:00,70.9,13.8,29.89,SW,225,12.0,21.0,11,0.00,,---,0.00,0.00,VWS V14.01,2013-10-08 05:45:00,
2013-10-07 22:56:00,71.3,12.0,29.89,SW,220,12.0,19.0,10,0.00,,,0.00,0,weatherlink.com 1.10,2013-10-08 05:56:00,
2013-10-07 23:00:00,71.1,11.8,29.89,SW,225,12.0,19.0,10,0.00,,---,0.00,0.00,VWS V14.01,2013-10-08 06:00:00,
2013-10-07 23:11:00,70.9,12.0,29.88,WSW,243,11.0,17.0,10,0.00,,,0.00,0,weatherlink.com 1.10,2013-10-08 06:11:00,
2013-10-07 23:15:00,71.0,11.7,29.88,SW,225,11.0,18.0,10,0.00,,---,0.00,0.00,VWS V14.01,2013-10-08 06:15:00,
2013-10-07 23:26:00,70.1,11.0,29.88,SW,231,14.0,15.0,10,0.00,,,0.00,0,weatherlink.com 1.10,2013-10-08 06:26:00,
2013-10-07 23:30:00,70.2,13.3,29.87,SW,225,11.0,17.0,11,0.00,,---,0.00,0.00,VWS V14.01,2013-10-08 06:30:00,
2013-10-07 23:41:00,69.1,14.0,29.87,SSW,212,10.0,19.0,12,0.00,,,0.00,0,weatherlink.com 1.10,2013-10-08 06:41:00,
2013-10-07 23:45:00,69.3,14.6,29.87,SW,225,13.0,19.0,12,0.00,,---,0.00,0.00,VWS V14.01,2013-10-08 06:45:00,
2013-10-07 23:56:00,68.1,15.0,29.87,SW,226,16.0,19.0,13,0.00,,,0.00,0,weatherlink.com 1.10,2013-10-08 06:56:00,